Weather History for K04W - November, 2013

Change the Weather History Date:

Thursday, November 7, 2013

  Actual Average (KJMR) Record (KJMR)
Temperature  
Mean Temperature 30 °F -  
Max Temperature 37 °F 44 °F - (-1)
Min Temperature 23 °F 23 °F - (-1)
Degree Days  
Heating Degree Days 35    
Moisture  
Dew Point 23 °F    
Average Humidity 77    
Maximum Humidity 100    
Minimum Humidity 52    
Precipitation  
Precipitation 0.00 in - - ()
Sea Level Pressure  
Sea Level Pressure 30.16 in    
Wind  
Wind Speed 2 mph (West)    
Max Wind Speed 12 mph    
Max Gust Speed 18 mph    
Visibility 10 miles    
Events      
Averages and records for this station are not official NWS values.
T = Trace of Precipitation, MM = Missing Value Source: NWS Daily Summary

Daily Weather History Graph

Daily Weather History Graph

Search for Another Location

Airport or City:

Trip Planner

Search our weather history database for the weather conditions in past years. The results will help you decide how hot, cold, wet, or windy it might be!

Date:

Astronomy

Nov. 07, 2013 Rise Set
Actual Time 7:01 AM CST 4:48 PM CST
Civil Twilight 6:29 AM CST 5:20 PM CST
Nautical Twilight 5:53 AM CST 5:56 PM CST
Astronomical Twilight 5:18 AM CST 6:31 PM CST
Moon 11:13 AM CST (11/7) 8:58 PM CST (11/7)
Length of Visible Light 10h 51m
Length of Day
9h 47m
Waxing Crescent, 23% of the Moon is Illuminated
Nov 7
Waxing Crescent
Nov 9
First Quarter
Nov 17
Full
Nov 25
Last Quarter
Dec 2
New

Hourly Weather History & Observations

Time (CST) Temp. Windchill Dew Point Humidity Pressure Visibility Wind Dir Wind Speed Gust Speed Precip Events Conditions
12:19 AM 32.0 °F - 21.2 °F 64% 30.13 in 10.0 mi Calm Calm - N/A   Overcast
12:39 AM 32.0 °F - 23.0 °F 69% 30.13 in 10.0 mi Calm Calm - N/A   Overcast
12:59 AM 30.2 °F - 23.0 °F 75% 30.13 in 10.0 mi Calm Calm - N/A   Overcast
1:19 AM 30.2 °F - 21.2 °F 69% 30.14 in 10.0 mi Calm Calm - N/A   Overcast
1:39 AM 30.2 °F - 24.8 °F 80% 30.14 in 10.0 mi Calm Calm - N/A   Mostly Cloudy
1:59 AM 28.4 °F - 24.8 °F 86% 30.13 in 10.0 mi Calm Calm - N/A   Scattered Clouds
2:19 AM 26.6 °F - 23.0 °F 86% 30.14 in 10.0 mi Calm Calm - N/A   Clear
2:39 AM 26.6 °F - 23.0 °F 86% 30.14 in 10.0 mi Calm Calm - N/A   Clear
2:59 AM 26.6 °F - 23.0 °F 86% 30.14 in 10.0 mi Calm Calm - N/A   Clear
3:19 AM 23.0 °F - 21.2 °F 93% 30.14 in 10.0 mi Calm Calm - N/A   Clear
3:39 AM 23.0 °F - 21.2 °F 93% 30.14 in 10.0 mi Calm Calm - N/A   Clear
3:59 AM 23.0 °F - 21.2 °F 93% 30.14 in 10.0 mi Calm Calm - N/A   Clear
4:19 AM 23.0 °F - 23.0 °F 100% 30.15 in 10.0 mi Calm Calm - N/A   Clear
4:39 AM 26.6 °F - 21.2 °F 80% 30.15 in 10.0 mi Calm Calm - N/A   Clear
4:59 AM 23.0 °F - 21.2 °F 93% 30.15 in 10.0 mi Calm Calm - N/A   Clear
5:19 AM 23.0 °F - 21.2 °F 93% 30.15 in 10.0 mi Calm Calm - N/A   Scattered Clouds
5:39 AM 23.0 °F - 21.2 °F 93% 30.16 in 10.0 mi Calm Calm - N/A   Mostly Cloudy
5:59 AM 24.8 °F - 23.0 °F 93% 30.16 in 10.0 mi Calm Calm - N/A   Overcast
6:19 AM 26.6 °F - 23.0 °F 86% 30.16 in 10.0 mi Calm Calm - N/A   Overcast
6:39 AM 26.6 °F 22.6 °F 23.0 °F 86% 30.16 in 10.0 mi West 3.5 mph - N/A   Overcast
6:59 AM 26.6 °F 22.6 °F 23.0 °F 86% 30.16 in 10.0 mi West 3.5 mph - N/A   Overcast
7:19 AM 28.4 °F - 23.0 °F 80% 30.17 in 10.0 mi Calm Calm - N/A   Overcast
7:40 AM 28.4 °F - 23.0 °F 80% 30.17 in 10.0 mi Calm Calm - N/A   Overcast
7:59 AM 28.4 °F - 24.8 °F 86% 30.17 in 10.0 mi Calm Calm - N/A   Overcast
8:19 AM 28.4 °F - 24.8 °F 86% 30.18 in 10.0 mi Calm Calm - N/A   Overcast
8:40 AM 30.2 °F - 26.6 °F 86% 30.18 in 10.0 mi Calm Calm - N/A   Overcast
8:59 AM 30.2 °F - 24.8 °F 80% 30.18 in 10.0 mi Calm Calm - N/A   Overcast
9:19 AM 32.0 °F - 26.6 °F 80% 30.18 in 10.0 mi Calm Calm - N/A   Overcast
9:40 AM 32.0 °F - 26.6 °F 80% 30.18 in 10.0 mi Calm Calm - N/A   Overcast
9:59 AM 32.0 °F - 26.6 °F 80% 30.18 in 10.0 mi Calm Calm - N/A   Overcast
10:19 AM 32.0 °F 28.7 °F 26.6 °F 80% 30.19 in 10.0 mi West 3.5 mph - N/A   Overcast
10:40 AM 33.8 °F 29.6 °F 24.8 °F 70% 30.19 in 10.0 mi West 4.6 mph - N/A   Mostly Cloudy
10:59 AM 33.8 °F 29.6 °F 23.0 °F 65% 30.19 in 10.0 mi West 4.6 mph - N/A   Mostly Cloudy
11:19 AM 33.8 °F 27.7 °F 23.0 °F 65% 30.19 in 10.0 mi West 6.9 mph - N/A   Overcast
11:40 AM 35.6 °F 30.7 °F 24.8 °F 65% 30.19 in 10.0 mi West 5.8 mph - N/A   Overcast
11:59 AM 35.6 °F 29.9 °F 23.0 °F 60% 30.18 in 10.0 mi NW 6.9 mph - N/A   Overcast
12:19 PM 35.6 °F 30.7 °F 23.0 °F 60% 30.17 in 10.0 mi West 5.8 mph - N/A   Mostly Cloudy
12:40 PM 37.4 °F 33.8 °F 23.0 °F 56% 30.16 in 10.0 mi WNW 4.6 mph - N/A   Scattered Clouds
12:59 PM 37.4 °F 30.8 °F 23.0 °F 56% 30.16 in 10.0 mi NW 9.2 mph 16.1 mph N/A   Scattered Clouds
1:20 PM 37.4 °F 30.8 °F 21.2 °F 52% 30.16 in 10.0 mi NW 9.2 mph - N/A   Scattered Clouds
1:39 PM 37.4 °F 30.8 °F 21.2 °F 52% 30.16 in 10.0 mi West 9.2 mph - N/A   Clear
1:59 PM 37.4 °F 32.1 °F 21.2 °F 52% 30.15 in 10.0 mi WNW 6.9 mph - N/A   Clear
2:20 PM 37.4 °F 30.3 °F 21.2 °F 52% 30.15 in 10.0 mi West 10.4 mph - N/A   Scattered Clouds
2:39 PM 37.4 °F 31.4 °F 21.2 °F 52% 30.15 in 10.0 mi WNW 8.1 mph - N/A   Scattered Clouds
2:59 PM 37.4 °F 29.8 °F 21.2 °F 52% 30.15 in 10.0 mi WNW 11.5 mph 18.4 mph N/A   Scattered Clouds
3:20 PM 35.6 °F 28.6 °F 21.2 °F 56% 30.15 in 10.0 mi West 9.2 mph - N/A   Clear
3:39 PM 37.4 °F 32.8 °F 23.0 °F 56% 30.15 in 10.0 mi WNW 5.8 mph - N/A   Scattered Clouds
3:59 PM 35.6 °F 32.8 °F 23.0 °F 60% 30.15 in 10.0 mi WNW 3.5 mph - N/A   Scattered Clouds
4:20 PM 35.6 °F 32.8 °F 23.0 °F 60% 30.14 in 10.0 mi West 3.5 mph - N/A   Scattered Clouds
4:39 PM 35.6 °F 32.8 °F 23.0 °F 60% 30.15 in 10.0 mi West 3.5 mph - N/A   Scattered Clouds
4:59 PM 33.8 °F 30.8 °F 24.8 °F 70% 30.15 in 10.0 mi SW 3.5 mph - N/A   Overcast
5:20 PM 32.0 °F 27.5 °F 24.8 °F 75% 30.15 in 10.0 mi WSW 4.6 mph - N/A   Mostly Cloudy
5:39 PM 32.0 °F 28.7 °F 24.8 °F 75% 30.15 in 10.0 mi West 3.5 mph - N/A   Scattered Clouds
5:59 PM 32.0 °F 28.7 °F 24.8 °F 75% 30.16 in 10.0 mi WSW 3.5 mph - N/A   Clear
6:20 PM 32.0 °F 28.7 °F 24.8 °F 75% 30.16 in 10.0 mi WSW 3.5 mph - N/A   Clear
6:39 PM 32.0 °F 28.7 °F 23.0 °F 69% 30.16 in 10.0 mi West 3.5 mph - N/A   Clear
7:00 PM 32.0 °F - 23.0 °F 69% 30.16 in 10.0 mi Calm Calm - N/A   Clear
7:20 PM 30.2 °F - 24.8 °F 80% 30.16 in 10.0 mi Calm Calm - N/A   Clear
7:39 PM 30.2 °F - 26.6 °F 86% 30.16 in 10.0 mi Calm Calm - N/A   Clear
8:00 PM 28.4 °F - 24.8 °F 86% 30.16 in 10.0 mi Calm Calm - N/A   Clear
8:20 PM 30.2 °F 25.4 °F 24.8 °F 80% 30.16 in 10.0 mi West 4.6 mph - N/A   Clear
8:39 PM 32.0 °F 28.7 °F 24.8 °F 75% 30.16 in 10.0 mi West 3.5 mph - N/A   Clear
9:00 PM 30.2 °F - 24.8 °F 80% 30.16 in 10.0 mi Calm Calm - N/A   Clear
9:20 PM 28.4 °F - 26.6 °F 93% 30.16 in 10.0 mi Calm Calm - N/A   Clear
9:40 PM 26.6 °F - 23.0 °F 86% 30.16 in 10.0 mi Calm Calm - N/A   Clear
10:00 PM 24.8 °F - 23.0 °F 93% 30.16 in 10.0 mi Calm Calm - N/A   Clear
10:19 PM 26.6 °F - 23.0 °F 86% 30.17 in 10.0 mi Calm Calm - N/A   Clear
10:40 PM 24.8 °F - 23.0 °F 93% 30.17 in 10.0 mi Calm Calm - N/A   Clear
10:59 PM 23.0 °F - 23.0 °F 100% 30.16 in 10.0 mi Calm Calm - N/A   Clear
11:19 PM 23.0 °F - 23.0 °F 100% 30.16 in 10.0 mi Calm Calm - N/A   Clear
11:39 PM 23.0 °F - 21.2 °F 93% 30.16 in 10.0 mi Calm Calm - N/A   Clear
11:59 PM 23.0 °F - 21.2 °F 93% 30.16 in 10.0 mi Calm Calm - N/A   Clear